This demonstration page uses our WeatherBlox Daily Observations layout. Learn more.

Left ArrowRight Arrow

39.92423, -83.80882

Hourly Observations for February 7, 2021

Temp ( °F °C ) Dew Point ( °F °C ) Humidity (%) Winds ( mph kmh ) Pressure ( in mb ) Visibility ( mi km ) Precip ( " mm )
12:56 am 00:56 Cloudy with Light Snow 17 -8.3 14 -10 88 88 NNW 13 20 30.04 1017 9 14 0.00 0.00
1:41 am 01:41 Cloudy with Light Snow 18 -8 16 -9 93 93 NNW 16 26 30.09 1019 3 4 0.00 0.00
1:52 am 01:52 Cloudy with Light Snow 16 -9 14 -10 93 93 NW 16 26 30.09 1019 4 6 0.00 0.00
1:56 am 01:56 Cloudy with Light Snow 16 -8.9 14 -10 92 92 NNW 14 22 30.05 1018 4 6 0.00 0.00
2:56 am 02:56 Cloudy with Light Snow 17 -8.3 15 -9.4 92 92 NW 12 19 30.05 1018 9 14 0.00 0.00
3:18 am 03:18 Cloudy with Light Snow 18 -8 16 -9 93 93 NNW 17 28 30.09 1019 9 14 0.00 0.00
3:48 am 03:48 Cloudy with Light Snow 16 -9 12 -11 86 86 NW 10 17 30.08 1019 6 10 0.00 0.00
3:56 am 03:56 Cloudy with Light Snow 16 -8.9 13 -10.6 88 88 NW 10 17 30.04 1017 4 6 0.00 0.00
4:16 am 04:16 Cloudy with Light Snow 16 -9 14 -10 93 93 NW 12 19 30.09 1019 3 5 0.00 0.00
4:54 am 04:54 Cloudy with Light Snow 16 -9 12 -11 86 86 NW 13 20 30.10 1019 9 14 0.00 0.00
4:56 am 04:56 Cloudy with Light Snow 16 -8.9 13 -10.6 88 88 NW 14 22 30.06 1018 9 14 0.00 0.00
5:32 am 05:32 Partly Cloudy 14 -10 10 -12 85 85 NW 13 20 30.13 1020 9 14 0.00 0.00
5:42 am 05:42 Mostly Cloudy with Light Snow 14 -10 10 -12 85 85 WNW 13 20 30.14 1021 10 16 0.00 0.00
5:56 am 05:56 Cloudy with Light Snow 14 -10 12 -11.1 92 92 WNW 13 20 30.11 1020 9 14 0.00 0.00
6:35 am 06:35 Partly Cloudy with Scattered Snow Showers 12 -11 9 -13 85 85 NW 10 17 30.15 1021 9 14 0.00 0.00
6:56 am 06:56 Clear 11 -11.7 8 -13.3 88 88 WNW 7 11 30.13 1020 10 16 0.00 0.00
7:56 am 07:56 Partly Cloudy with Isolated Snow Showers 9 -12.8 6 -14.4 88 88 NW 9 15 30.17 1022 6 10 0.00 0.00
8:56 am 08:56 Sunny with Light Snow 9 -12.8 5 -15 84 84 WNW 12 19 30.20 1023 9 14 0.00 0.00
9:56 am 09:56 Sunny 10 -12.2 5 -15 80 80 WNW 14 22 30.22 1023 10 16 0.00 0.00
10:56 am 10:56 Sunny 12 -11.1 6 -14.4 77 77 WNW 9 15 30.22 1023 10 16 0.00 0.00
11:56 am 11:56 Mostly Sunny 13 -10.6 6 -14.4 74 74 WNW 12 19 30.24 1024 10 16 0.00 0.00
12:56 pm 12:56 Sunny 14 -10 5 -15 67 67 WNW 8 13 30.22 1024 10 16 0.00 0.00
1:56 pm 13:56 Sunny 14 -10 4 -15.6 64 64 W 10 17 30.23 1024 10 16 0.00 0.00
2:56 pm 14:56 Sunny 15 -9.4 3 -16.1 59 59 NW 8 13 30.23 1024 10 16 0.00 0.00
3:56 pm 15:56 Sunny 14 -10 0 -17.8 53 53 NW 8 13 30.25 1024 10 16 0.00 0.00
4:56 pm 16:56 Sunny 14 -10 2 -16.7 58 58 NW 9 15 30.26 1025 10 16 0.00 0.00
5:56 pm 17:56 Sunny 11 -11.7 1 -17.2 64 64 NW 6 9 30.27 1025 10 16 0.00 0.00
6:56 pm 18:56 Mostly Cloudy 10 -12.2 1 -17.2 67 67 N 5 7 30.28 1025 10 16 0.00 0.00
7:56 pm 19:56 Cloudy 10 -12.2 1 -17.2 67 67 NNW 6 9 30.30 1026 10 16 0.00 0.00
8:56 pm 20:56 Cloudy 11 -11.7 2 -16.7 67 67 NNW 6 9 30.32 1027 10 16 0.00 0.00
9:56 pm 21:56 Mostly Cloudy 11 -11.7 0 -17.8 61 61 NW 8 13 30.34 1027 10 16 0.00 0.00
10:56 pm 22:56 Cloudy 10 -12.2 -1 -18.3 61 61 NNW 7 11 30.33 1027 10 16 0.00 0.00
11:56 pm 23:56 Cloudy 10 -12.2 0 -17.8 63 63 NNW 5 7 30.34 1028 10 16 0.00 0.00

Powered by AerisWeather